Location: Hradec Kralove
(50.2170°N, 15.8330°E)
Time: 05:06:44
(UTC+01:00)

QB50P2 - Visible Passes

Search period start: 27 February 2024 00:00
Search period end: 08 March 2024 00:00
Orbit: 570 x 585 km, 98.0° (Epoch: 26 February)

Date Brightness Start Highest point End Pass type
(mag) Time Alt. Az. Time Alt. Az. Time Alt. Az.
02 Mar ? 03:16:19 10° N 03:16:21 10° N 03:16:21 10° N visible
03 Mar ? 03:20:32 10° N 03:20:41 11° N 03:20:41 11° N visible
04 Mar ? 03:24:45 10° N 03:25:01 11° N 03:25:01 11° N visible
05 Mar ? 03:28:57 10° N 03:29:19 12° N 03:29:19 12° N visible
06 Mar ? 03:33:09 10° N 03:33:37 13° N 03:33:37 13° N visible
07 Mar ? 03:37:19 10° N 03:37:54 13° NNW 03:37:54 13° NNW visible
